This demonstration page uses our WeatherBlox Daily Observations layout. Learn more.

Left ArrowRight Arrow

40.92945, -100.16068

Hourly Observations for November 9, 2015

Temp ( °F °C ) Dew Point ( °F °C ) Humidity (%) Winds ( mph kmh ) Pressure ( in mb ) Visibility ( mi km ) Precip ( " mm )
12:15 am 00:15 Clear 41 5.1 36 2 81 81 S 8 13 30.09 1019 10 16 N/A
12:35 am 00:35 Clear 40 4.7 35 1.7 81 81 S 8 13 30.09 1019 10 16 N/A
12:55 am 00:55 Clear 40 4.2 35 1.4 82 82 S 7 11 30.09 1019 10 16 N/A
1:15 am 01:15 Clear 39 3.8 34 1.2 83 83 S 7 11 30.09 1019 10 16 N/A
1:35 am 01:35 Clear 38 3.2 34 0.9 85 85 SSE 6 9 30.12 1020 10 16 N/A
1:55 am 01:55 Clear 37 3 34 1 87 87 SSE 6 9 30.12 1020 10 16 N/A
2:15 am 02:15 Clear 37 3 33 0.8 86 86 SSE 5 7 30.12 1020 10 16 N/A
2:35 am 02:35 Clear 37 2.9 33 0.7 86 86 SE 6 9 30.12 1020 10 16 N/A
2:55 am 02:55 Clear 37 2.7 33 0.5 86 86 SSE 6 9 30.12 1020 10 16 N/A
3:15 am 03:15 Clear 37 2.7 33 0.6 86 86 SSE 7 11 30.12 1020 10 16 N/A
3:35 am 03:35 Clear 37 2.5 33 0.5 87 87 SSE 6 9 30.12 1020 10 16 N/A
3:55 am 03:55 Clear 36 2.2 33 0.3 87 87 SSE 6 9 30.12 1020 10 16 N/A
4:15 am 04:15 Clear 37 2.5 33 0.7 88 88 SSE 6 9 30.09 1019 10 16 N/A
4:35 am 04:35 Clear 36 2.1 33 0.3 88 88 SSE 5 7 30.09 1019 10 16 N/A
4:55 am 04:55 Clear 35 1.4 32 undefined 91 91 N N/A 30.09 1019 10 16 N/A
5:15 am 05:15 Clear 37 2.5 33 0.7 88 88 SSE 3 6 30.12 1020 10 16 N/A
5:35 am 05:35 Clear 35 1.9 32 undefined 87 87 SSE 5 7 30.09 1019 10 16 N/A
5:55 am 05:55 Clear 35 1.4 32 undefined 91 91 S 3 6 30.12 1020 10 16 N/A
6:15 am 06:15 Clear 34 1.1 31 -0.3 91 91 N N/A 30.12 1020 10 16 N/A
6:35 am 06:35 Clear 34 1 32 -0.1 92 92 SSE 3 6 30.12 1020 10 16 N/A
6:55 am 06:55 Clear 33 0.7 31 -0.5 92 92 SSE 7 11 30.12 1020 10 16 N/A
7:15 am 07:15 Clear 34 1.3 32 0.1 92 92 SSE 3 6 30.12 1020 10 16 N/A
7:35 am 07:35 Sunny 34 1.2 32 undefined 92 92 SSE 5 7 30.12 1020 10 16 N/A
7:55 am 07:55 Sunny 34 1.3 32 undefined 91 91 SE 5 7 30.12 1020 10 16 N/A
8:15 am 08:15 Sunny 37 2.5 34 1.1 91 91 SSE 6 9 30.12 1020 10 16 N/A
8:35 am 08:35 Sunny 39 4.1 37 2.6 90 90 SSE 6 9 30.09 1019 10 16 N/A
8:55 am 08:55 Sunny 42 5.6 38 3.5 87 87 S 8 13 30.09 1019 10 16 N/A
9:15 am 09:15 Sunny 44 6.9 39 3.7 80 80 S 12 19 30.09 1019 10 16 N/A
9:35 am 09:35 Sunny 46 8 39 3.8 75 75 S 8 13 30.06 1018 10 16 N/A
9:55 am 09:55 Sunny 48 9 39 4.1 72 72 S 12 19 30.06 1018 10 16 N/A
10:15 am 10:15 Sunny 49 9.6 39 3.9 68 68 SSW 14 22 30.06 1018 10 16 N/A
10:35 am 10:35 Sunny 50 10 39 4.1 67 67 S 13 20 30.06 1018 10 16 N/A
10:55 am 10:55 Sunny 51 10.6 39 4 64 64 S 12 19 30.03 1017 10 16 N/A
11:15 am 11:15 Sunny 52 11.3 40 4.7 64 64 SSW 10 17 30.00 1016 10 16 N/A
11:35 am 11:35 Sunny 53 11.8 40 4.7 62 62 S 10 17 30.00 1016 10 16 N/A
11:55 am 11:55 Sunny 54 12.4 41 4.8 60 60 S 10 17 30.00 1016 10 16 N/A
12:15 pm 12:15 Sunny 56 13.1 41 5 58 58 S 10 17 30.00 1016 10 16 N/A
12:35 pm 12:35 Sunny 56 13.6 41 5.1 57 57 S 13 20 29.94 1014 10 16 N/A
12:55 pm 12:55 Sunny 57 14.1 41 5 55 55 S 13 20 29.94 1014 10 16 N/A
1:15 pm 13:15 Sunny 59 14.9 42 5.3 53 53 S 12 19 29.94 1014 10 16 N/A
1:35 pm 13:35 Sunny 59 14.9 41 5.1 52 52 S 14 22 29.94 1014 10 16 N/A
1:55 pm 13:55 Sunny 60 15.5 41 5.1 50 50 SSE 17 28 29.88 1012 10 16 N/A
2:15 pm 14:15 Sunny 60 15.7 41 5.1 50 50 S 14 22 29.88 1012 10 16 N/A
2:35 pm 14:35 Sunny 61 16 41 4.9 48 48 S 16 26 29.88 1012 10 16 N/A
2:55 pm 14:55 Sunny 62 16.5 41 5 47 47 S 16 26 29.88 1012 10 16 N/A
3:15 pm 15:15 Sunny 62 16.5 41 5 47 47 S 17 28 29.85 1011 10 16 N/A
3:35 pm 15:35 Sunny 62 16.5 41 5.1 47 47 S 15 24 29.85 1011 10 16 N/A
3:55 pm 15:55 Sunny 62 16.5 41 5.1 47 47 S 17 28 29.85 1011 10 16 N/A
4:15 pm 16:15 Sunny 61 16.2 41 5 48 48 S 14 22 29.85 1011 10 16 N/A
4:35 pm 16:35 Sunny 60 15.3 41 4.9 50 50 S 15 24 29.88 1012 10 16 N/A
4:55 pm 16:55 Sunny 59 15 41 4.9 51 51 S 15 24 29.88 1012 10 16 N/A
5:15 pm 17:15 Sunny 58 14.4 40 4.6 52 52 SSE 12 19 29.88 1012 10 16 N/A
5:35 pm 17:35 Clear 56 13.5 40 4.5 55 55 SSE 14 22 29.88 1012 10 16 N/A
5:55 pm 17:55 Clear 55 12.8 40 4.4 57 57 S 12 19 29.88 1012 10 16 N/A
6:15 pm 18:15 Clear 54 12.1 40 4.4 60 60 SSE 10 17 29.91 1013 10 16 N/A
6:35 pm 18:35 Clear 52 10.9 40 4.2 64 64 SSE 8 13 29.91 1013 10 16 N/A
6:55 pm 18:55 Clear 50 10.1 39 4.1 67 67 SSE 9 15 29.91 1013 10 16 N/A
7:15 pm 19:15 Clear 49 9.3 39 4 70 70 SSE 9 15 29.94 1014 10 16 N/A
7:35 pm 19:35 Clear 47 8.3 39 3.7 73 73 SSE 9 15 29.94 1014 10 16 N/A
7:55 pm 19:55 Clear 48 8.7 39 4 73 73 SSE 9 15 29.94 1014 10 16 N/A
8:15 pm 20:15 Clear 48 9 39 4 71 71 SSE 9 15 29.94 1014 10 16 N/A
8:35 pm 20:35 Clear 48 8.8 39 4 72 72 SSE 10 17 29.94 1014 10 16 N/A
8:55 pm 20:55 Clear 48 9 39 4 71 71 SSE 10 17 29.94 1014 10 16 N/A
9:15 pm 21:15 Clear 48 9 39 4 71 71 SSE 12 19 29.94 1014 10 16 N/A
9:35 pm 21:35 Clear 47 8.6 39 4 73 73 SSE 12 19 29.94 1014 10 16 N/A
9:55 pm 21:55 Clear 47 8.5 39 3.7 72 72 SSE 10 17 29.94 1014 10 16 N/A
10:15 pm 22:15 Clear 47 8.5 38 3.6 72 72 SSE 12 19 29.94 1014 10 16 N/A
10:35 pm 22:35 Clear 48 9 38 3.6 69 69 S 14 22 29.94 1014 10 16 N/A
10:55 pm 22:55 Clear 48 8.9 38 3.4 69 69 S 14 22 29.94 1014 10 16 N/A
11:15 pm 23:15 Clear 47 8.5 38 3.1 69 69 SSE 12 19 29.94 1014 10 16 N/A
11:35 pm 23:35 Clear 47 8.1 38 3.1 71 71 SSE 13 20 29.94 1014 10 16 N/A
11:55 pm 23:55 Clear 46 7.9 37 3 71 71 SSE 12 19 29.91 1013 10 16 N/A

Powered by AerisWeather